Weather History for KLXT - April, 2013

Change the Weather History Date:

Thursday, April 18, 2013

  Actual Average (KOJC) Record (KOJC)
Temperature  
Mean Temperature 42 °F 56 °F  
Max Temperature 48 °F 66 °F - ()
Min Temperature 37 °F 46 °F - ()
Degree Days  
Heating Degree Days 22 10  
Month to date heating degree days 221  
Since 1 July heating degree days 4738  
Cooling Degree Days 0 1  
Month to date cooling degree days 10  
Year to date cooling degree days 11  
Moisture  
Dew Point 37 °F    
Average Humidity 84    
Maximum Humidity 100    
Minimum Humidity 62    
Precipitation  
Precipitation 0.38 in 0.13 in - ()
Month to date precipitation 2.04  
Year to date precipitation 7.36  
Sea Level Pressure  
Sea Level Pressure 29.71 in    
Wind  
Wind Speed 10 mph (NW)    
Max Wind Speed 21 mph    
Max Gust Speed 30 mph    
Visibility 8 miles    
Events Rain , Thunderstorm    
T = Trace of Precipitation, MM = Missing Value Source: NWS Daily Summary

Daily Weather History Graph

Daily Weather History Graph

Search for Another Location

Airport or City:

Trip Planner

Search our weather history database for the weather conditions in past years. The results will help you decide how hot, cold, wet, or windy it might be!

Date:

Astronomy

Apr. 18, 2013 Rise Set
Actual Time 6:36 AM CDT 7:57 PM CDT
Civil Twilight 6:08 AM CDT 8:25 PM CDT
Nautical Twilight 5:35 AM CDT 8:59 PM CDT
Astronomical Twilight 5:00 AM CDT 9:34 PM CDT
Moon 12:49 PM CDT (4/18) 2:12 AM CDT (4/18)
Length of Visible Light 14h 17m
Length of Day
13h 21m
First Quarter, 52% of the Moon is Illuminated
Apr 18
First Quarter
Apr 25
Full
May 2
Last Quarter
May 9
New
May 17
First Quarter

Hourly Weather History & Observations

Time (CDT) Temp. Windchill Dew Point Humidity Pressure Visibility Wind Dir Wind Speed Gust Speed Precip Events Conditions
12:24 AM 46.4 °F 44.3 °F 46.4 °F 100% 29.66 in 10.0 mi NNE 4.6 mph - 0.01 in Rain Light Rain
12:34 AM 48.2 °F - 46.4 °F 93% 29.65 in 7.0 mi Calm Calm - 0.03 in Rain , Thunderstorm Thunderstorms and Rain
12:53 AM 48.0 °F - 46.0 °F 93% 29.69 in 5.0 mi NW 4.6 mph - 0.08 in Rain , Thunderstorm Light Thunderstorms and Rain
1:17 AM 46.4 °F 44.3 °F 46.4 °F 100% 29.66 in 3.0 mi WNW 4.6 mph - 0.08 in Rain , Thunderstorm Heavy Rain
1:44 AM 48.2 °F - 46.4 °F 93% 29.65 in 7.0 mi North 5.8 mph - 0.15 in Rain Light Rain
1:53 AM 48.0 °F - 46.0 °F 93% 29.67 in 9.0 mi WNW 6.9 mph - 0.15 in Rain Light Rain
2:53 AM 45.0 °F 38.5 °F 43.0 °F 93% 29.64 in 10.0 mi NW 13.8 mph - 0.00 in   Overcast
3:53 AM 44.1 °F 37.7 °F 42.1 °F 93% 29.62 in 10.0 mi NW 12.7 mph 21.9 mph 0.04 in Rain Light Rain
4:53 AM 44.1 °F 38.1 °F 42.1 °F 93% 29.57 in 10.0 mi NNW 11.5 mph - 0.02 in   Overcast
5:37 AM 42.8 °F 38.0 °F 41.0 °F 93% 29.58 in 10.0 mi North 8.1 mph - 0.01 in Rain , Thunderstorm Light Rain
5:53 AM 43.0 °F 38.8 °F 41.0 °F 93% 29.56 in 8.0 mi North 6.9 mph - 0.03 in Rain , Thunderstorm Light Thunderstorms and Rain
6:00 AM 42.8 °F 39.3 °F 41.0 °F 93% 29.57 in 10.0 mi NNW 5.8 mph - 0.00 in   Overcast
6:48 AM 42.8 °F 38.0 °F 39.2 °F 87% 29.59 in 2.5 mi NNW 8.1 mph - 0.00 in   Overcast
6:53 AM 42.1 °F 36.6 °F 41.0 °F 96% 29.60 in 3.0 mi NW 9.2 mph - 0.00 in Rain Light Rain
7:19 AM 42.8 °F 36.6 °F 39.2 °F 87% 29.62 in 2.5 mi NW 11.5 mph - 0.05 in Rain , Thunderstorm Light Thunderstorms and Rain
7:26 AM 42.8 °F 37.0 °F 39.2 °F 87% 29.61 in 3.0 mi NW 10.4 mph - 0.06 in Rain , Thunderstorm Light Thunderstorms and Rain
7:37 AM 42.8 °F 36.2 °F 39.2 °F 87% 29.59 in 2.5 mi NW 12.7 mph - 0.06 in Thunderstorm Overcast
7:43 AM 41.0 °F 33.9 °F 39.2 °F 93% 29.62 in 3.0 mi WNW 12.7 mph - 0.06 in   Overcast
7:53 AM 41.0 °F 33.5 °F 39.0 °F 93% 29.62 in 6.0 mi NW 13.8 mph - 0.06 in   Overcast
8:53 AM 39.0 °F 30.3 °F 37.0 °F 93% 29.65 in 2.5 mi WNW 16.1 mph - N/A   Overcast
9:21 AM 39.2 °F 30.8 °F 37.4 °F 93% 29.64 in 3.0 mi WNW 15.0 mph 26.5 mph N/A   Overcast
9:53 AM 39.0 °F 31.0 °F 36.0 °F 89% 29.67 in 6.0 mi WNW 13.8 mph 25.3 mph N/A   Overcast
10:11 AM 39.2 °F 30.8 °F 35.6 °F 87% 29.67 in 8.0 mi WNW 15.0 mph 25.3 mph N/A   Overcast
10:28 AM 39.2 °F 30.5 °F 35.6 °F 87% 29.68 in 5.0 mi West 16.1 mph 23.0 mph N/A   Overcast
10:36 AM 37.4 °F 28.2 °F 35.6 °F 93% 29.68 in 4.0 mi WNW 16.1 mph 24.2 mph N/A   Overcast
10:53 AM 37.9 °F 28.9 °F 35.1 °F 89% 29.71 in 3.0 mi WNW 16.1 mph 26.5 mph N/A   Overcast
11:48 AM 39.2 °F 29.6 °F 35.6 °F 87% 29.71 in 10.0 mi WNW 19.6 mph 26.5 mph N/A   Overcast
11:53 AM 39.0 °F 30.3 °F 35.1 °F 86% 29.72 in 10.0 mi West 16.1 mph 26.5 mph N/A   Overcast
12:00 PM 39.2 °F 29.6 °F 35.6 °F 87% 29.71 in 10.0 mi West 19.6 mph 28.8 mph N/A   Overcast
12:40 PM 39.2 °F 29.6 °F 33.8 °F 81% 29.74 in 10.0 mi WNW 19.6 mph 28.8 mph 0.00 in   Overcast
12:53 PM 39.9 °F 30.2 °F 34.0 °F 79% 29.77 in 10.0 mi WNW 20.7 mph 29.9 mph 0.00 in   Overcast
1:40 PM 39.2 °F 29.6 °F 33.8 °F 81% 29.75 in 10.0 mi West 19.6 mph 27.6 mph 0.00 in   Overcast
1:49 PM 39.2 °F 29.3 °F 33.8 °F 81% 29.75 in 10.0 mi West 20.7 mph 27.6 mph 0.00 in   Overcast
1:53 PM 39.0 °F 29.0 °F 33.1 °F 79% 29.77 in 10.0 mi WNW 20.7 mph 28.8 mph 0.00 in   Overcast
2:53 PM 39.0 °F 30.6 °F 32.0 °F 76% 29.79 in 10.0 mi WNW 15.0 mph 24.2 mph N/A   Overcast
3:53 PM 39.0 °F 29.3 °F 30.9 °F 73% 29.81 in 10.0 mi West 19.6 mph 28.8 mph N/A   Overcast
4:53 PM 37.9 °F 29.2 °F 30.0 °F 73% 29.84 in 10.0 mi WNW 15.0 mph 21.9 mph N/A   Overcast
5:53 PM 39.0 °F 30.3 °F 30.0 °F 70% 29.87 in 10.0 mi WNW 16.1 mph 25.3 mph N/A   Overcast
6:53 PM 39.0 °F 31.4 °F 30.0 °F 70% 29.88 in 10.0 mi WNW 12.7 mph 18.4 mph N/A   Overcast
7:17 PM 39.2 °F 29.6 °F 28.4 °F 65% 29.86 in 10.0 mi WNW 19.6 mph 26.5 mph N/A   Overcast
7:53 PM 39.0 °F 31.0 °F 28.0 °F 65% 29.90 in 10.0 mi WNW 13.8 mph 27.6 mph N/A   Overcast
8:53 PM 37.9 °F 28.5 °F 26.1 °F 62% 29.92 in 10.0 mi WNW 17.3 mph 28.8 mph N/A   Overcast
9:53 PM 37.9 °F 29.2 °F 27.0 °F 65% 29.94 in 10.0 mi WNW 15.0 mph - N/A   Overcast
10:53 PM 37.0 °F 28.1 °F 26.1 °F 65% 29.94 in 10.0 mi WNW 15.0 mph 23.0 mph N/A   Overcast
11:53 PM 37.0 °F 28.9 °F 25.0 °F 62% 29.93 in 10.0 mi WNW 12.7 mph 23.0 mph N/A   Overcast